SCP
0 0 0 0 0 0 0 0 0 0 0 0 0 0 0 0 0 0 0 0 0 0 0 0 0 0 0 0 0 0 0 0 0 0 0 0 0 0 0 0 0 0 0
0 0 0 0 0 0 0 0 0 0 0 0 0 0 0 0 0 0 0 0 0 0 0 0 0 0 0 0 0 0 0 0 0 0 0 0 0 0 0 0 0 0 0
0 0 0 0 0 0 0 0 0 0 0 0 0 0 0 0 0 0 0 0 0 0 0 0 0 0 0 0 0 0 0 0 0 0 0 0 0 0 0 0 0 0 0
0 0 0 0 0 0 0 0 0 0 0 0 0 0 0 0 0 0 0 0 0 0 0 0 0 0 0 0 0 0 0 0 0 0 0 0 0 0 0 0 0 0 0
0 0 0 0 0 0 0 0 0 0 0 0 0 0 0 0 0 0 0 0 0 0 0 0 0 0 0 0 0 0 0 0 0 0 0 0 0 0 0 0 0 0 0
0 0 0 0 0 0 0 0 0 0 0 0 0 0 0 0 0 0 0 0 0 0 0 0 0 0 0 0 0 0 0 0 0 0 0 0 0 0 0 0 0 0 0
0 0 0 0 0 0 0 0 0 0 0 0 0 0 0 0 0 0 0 0 0 0 0 0 0 0 0 0 0 0 0 0 0 0 0 0 0 0 0 0 0 0 0
0 0 0 0 0 0 0 0 0 0 0 0 0 0 0 0 0 0 0 0 0 0 0 0 0 0 0 0 0 0 0 0 0 0 0 0 0 0 0 0 0 0 0
0 0 0 0 0 0 0 0 0 0 0 0 0 0 0 0 0 0 0 0 0 0 0 0 0 0 0 0 0 0 0 0 0 0 0 0 0 0 0 0 0 0 0
0 0 0 0 0 0 0 0 0 0 0 0 0 0 0 0 0 0 0 0 0 0 0 0 0 0 0 0 0 0 0 0 0 0 0 0 0 0 0 0 0 0 0
0 0 0 0 0 0 0 0 0 0 0 0 0 0 0 0 0 0 0 0 0 0 0 0 0 0 0 0 0 0 0 0 0 0 0 0 0 0 0 0 0 0 0
0 0 0 0 0 0 0 0 0 0 0 0 0 0 0 0 0 0 0 0 0 0 0 0 0 0 0 0 0 0 0 0 0 0 0 0 0 0 0 0 0 0 0
0 0 0 0 0 0 0 0 0 0 0 0 0 0 0 0 0 0 0 0 0 0 0 0 0 0 0 0 0 0 0 0 0 0 0 0 0 0 0 0 0 0 0
0 0 0 0 0 0 0 0 0 0 0 0 0 0 0 0 0 0 0 0 0 0 0 0 0 0 0 0 0 0 0 0 0 0 0 0 0 0 0 0 0 0 0
0 0 0 0 0 0 0 0 0 0 0 0 0 0 0 0 0 0 0 0 0 0 0 0 0 0 0 0 0 0 0 0 0 0 0 0 0 0 0 0 0 0 0
0 0 0 0 0 0 0 0 0 0 0 0 0 0 0 0 0 0 0 0 0 0 0 0 0 0 0 0 0 0 0 0 0 0 0 0 0 0 0 0 0 0 0
0 0 0 0 0 0 0 0 0 0 0 0 0 0 0 0 0 0 0 0 0 0 0 0 0 0 0 0 0 0 0 0 0 0 0 0 0 0 0 0 0 0 0
0 0 0 0 0 0 0 0 0 0 0 0 0 0 0 0 0 0 0 0 0 0 0 0 0 0 0 0 0 0 0 0 0 0 0 0 0 0 0 0 0 0 0
0 0 0 0 0 0 0 0 0 0 0 0 0 0 0 0 0 0 0 0 0 0 0 0 0 0 0 0 0 0 0 0 0 0 0 0 0 0 0 0 0 0 0
0 0 0 0 0 0 0 0 0 0 0 0 0 0 0 0 0 0 0 0 0 0 0 0 0 0 0 0 0 0 0 0 0 0 0 0 0 0 0 0 0 0 0
0 0 0 0 0 0 0 0 0 0 0 0 0 0 0 0 0 0 0 0 0 0 0 0 0 0 0 0 0 0 0 0 0 0 0 0 0 0 0 0 0 0 0
0 0 0 0 0 0 0 0 0 0 0 0 0 0 0 0 0 0 0 0 0 0 0 0 0 0 0 0 0 0 0 0 0 0 0 0 0 0 0 0 0 0 0
0 0 0 0 0 0 0 0 0 0 0 0 0 0 0 0 0 0 0 0 0 0 0 0 0 0 0 0 0 0 0 0 0 0 0 0 0 0 0 0 0 0 0
0 0 0 0 0 0 0 0 0 0 0 0 0 0 0 0 0 0 0 0 0 0 0 0 0 0 0 0 0 0 0 0 0 0 0 0 0 0 0 0 0 0 0
0 0 0 0 0 0 0 0 0 0 0 0 0 0 0 0 0 0 0 0 0 0 0 0 0 0 0 0 0 0 0 0 0 0 0 0 0 0 0 0 0 0 0
0 0 0 0 0 0 0 0 0 0 0 0 0 0 0 0 0 0 0 0 0 0 0 0 0 0 0 0 0 0 0 0 0 0 0 0 0 0 0 0 0 0 0
Wind_Speed
8 8 7 6 6 5 5 5 4 4 4 4 4 3 3 3 2 2 2 3 3 3 4 4 5 5 4 4 4 5 6 7 10 9 9 10 12 12 11 11 11 11 10
7 7 7 6 5 5 5 4 4 4 4 4 3 3 3 3 3 3 3 3 4 4 4 5 5 4 6 5 5 6 6 7 9 11 10 10 12 12 12 12 11 9 10
7 7 6 6 5 5 4 4 4 4 4 3 3 3 3 3 3 4 4 4 4 5 5 5 5 6 6 6 6 7 6 7 8 9 10 9 9 9 11 11 12 10 10
6 6 6 5 5 4 4 4 3 3 3 3 3 3 3 3 4 4 4 4 5 5 5 6 6 6 7 7 6 7 7 8 8 8 8 8 8 10 9 10 10 10 9
5 5 5 4 4 4 3 3 3 3 3 3 3 3 3 3 3 4 4 4 5 5 5 6 6 7 8 8 7 7 8 7 7 7 8 8 8 8 9 8 10 10 10
5 4 4 4 4 3 3 3 2 2 2 2 2 2 3 3 4 5 4 4 5 5 5 5 6 7 8 10 11 11 10 9 9 8 8 9 10 10 9 9 9 9 8
5 4 4 3 3 3 2 2 2 2 2 2 2 2 3 3 3 4 5 5 5 5 5 5 5 5 8 7 9 10 10 11 11 10 10 10 11 10 11 10 9 10 9
4 4 3 3 3 3 2 2 2 1 1 1 2 2 2 2 3 4 5 5 5 5 5 6 6 7 6 8 8 8 8 8 8 8 9 10 10 10 9 9 10 10 9
3 3 2 2 2 2 2 1 1 1 1 1 1 2 2 2 3 5 5 4 4 5 5 6 6 7 8 9 8 8 9 8 8 10 11 12 13 12 10 7 7 7 7
3 2 2 1 2 2 1 1 1 1 1 1 1 1 2 3 3 4 5 3 4 4 5 5 7 8 9 9 7 8 9 9 9 9 9 9 9 8 8 6 5 6 6
2 2 2 1 2 1 1 1 1 1 0 0 1 1 2 3 3 4 5 4 4 4 4 4 5 9 10 10 9 7 9 10 8 8 8 7 7 6 5 5 5 5 5
2 2 2 2 2 1 1 1 1 1 0 0 1 1 2 2 3 4 6 6 6 5 5 4 5 9 10 10 8 9 11 10 6 6 6 6 6 6 6 6 6 6 5
2 2 2 2 1 1 1 1 1 1 0 1 1 2 2 2 3 5 6 7 7 5 5 7 9 9 9 7 8 10 8 6 5 5 6 6 6 6 6 5 6 5 5
2 2 1 1 1 2 1 1 1 1 1 1 1 2 2 3 3 3 3 4 5 5 5 6 8 7 6 7 7 6 5 5 5 5 6 5 5 5 5 5 5 5 4
2 2 1 1 1 1 1 1 1 1 2 2 2 2 3 3 4 7 5 4 4 4 5 4 4 4 4 5 5 5 5 5 5 5 5 5 5 5 5 4 4 4 4
2 2 1 1 1 1 1 1 2 2 4 4 4 4 4 5 7 8 8 7 7 6 5 4 4 4 5 5 5 5 5 5 5 5 5 5 5 5 5 4 4 4 4
2 2 1 1 1 1 1 2 2 2 3 3 4 5 6 6 6 6 7 6 5 5 3 4 4 5 5 5 5 5 6 5 5 5 5 5 5 5 5 4 4 4 4
2 2 2 1 1 1 2 2 2 2 3 3 3 5 6 6 6 6 6 4 3 3 3 4 5 5 5 5 5 5 5 5 5 5 5 5 5 4 4 4 4 4 4
2 1 1 2 2 2 2 2 2 3 3 3 3 3 5 5 5 5 4 3 3 3 4 4 5 5 5 5 5 5 5 5 5 5 5 5 5 4 4 4 3 4 4
1 2 3 2 2 2 2 2 2 3 3 3 3 3 3 3 3 3 3 3 4 4 4 5 5 5 5 5 5 5 5 5 5 5 5 5 4 4 4 4 3 3 3
2 2 3 2 2 2 2 2 3 3 3 3 3 3 5 3 3 4 4 4 4 4 5 5 5 5 5 5 5 6 6 5 5 5 5 4 4 4 3 3 3 2 2
1 2 2 2 2 2 2 3 3 3 3 4 3 3 5 3 3 4 4 4 4 4 5 5 5 5 5 5 5 5 6 6 5 5 4 4 4 3 3 2 2 2 2
2 2 2 2 2 3 3 2 3 3 3 3 3 3 3 3 4 4 4 4 5 5 5 5 5 5 5 5 5 5 5 6 5 5 5 4 4 3 2 2 2 2 2
2 2 2 2 2 2 2 3 3 3 3 3 3 3 4 4 4 5 5 5 5 5 5 5 5 7 8 7 5 5 5 6 5 4 5 4 3 2 2 2 1 1 1
2 2 2 2 2 3 3 3 3 3 3 3 3 4 4 4 4 4 4 4 5 5 6 6 5 6 8 8 7 6 7 8 6 4 3 2 2 2 2 1 1 1 2
2 2 2 2 2 3 3 3 3 3 3 3 4 4 4 4 4 4 4 4 5 5 5 5 6 8 8 7 7 8 7 7 6 4 2 1 1 1 1 1 1 1 2
Wind_Direction
167 166 166 166 167 167 169 173 177 177 177 181 187 194 201 211 222 233 246 259 265 272 276 279 284 288 287 286 284 279 276 276 282 293 299 307 309 309 311 310 309 308 306
164 162 163 162 162 166 169 173 178 180 181 185 190 197 204 218 230 240 247 257 265 272 277 279 283 288 288 288 286 285 282 280 284 293 300 306 308 309 310 310 311 309 306
160 160 159 161 165 170 171 172 177 180 182 186 196 201 212 226 236 245 250 258 265 272 277 279 283 286 289 291 290 288 286 286 284 287 295 302 304 310 313 311 312 311 310
154 156 158 163 167 169 167 170 174 178 185 194 205 211 222 232 239 249 259 266 272 277 279 279 280 283 289 294 291 291 292 291 292 292 295 302 305 311 314 315 316 317 316
149 149 151 154 156 158 160 164 168 176 189 201 210 219 229 238 246 259 267 272 277 281 281 280 282 288 293 294 294 295 295 294 296 296 298 302 308 317 317 314 311 315 313
142 141 139 141 141 147 153 156 162 176 185 193 209 223 238 249 268 272 282 271 275 277 283 287 288 283 288 290 293 295 295 294 297 296 298 302 307 311 311 312 313 316 312
130 130 131 133 132 136 142 150 164 178 185 201 217 232 250 269 276 274 282 284 278 280 282 285 289 293 295 292 291 289 287 287 288 290 292 298 302 308 309 308 309 308 303
115 118 122 128 129 131 136 149 164 178 190 214 234 247 263 278 288 288 294 283 280 283 284 287 291 294 297 303 299 295 293 292 292 288 290 296 300 304 303 300 300 301 297
103 101 105 123 127 129 132 143 159 176 201 228 243 256 268 287 303 304 306 292 287 290 291 291 292 294 306 310 304 300 301 301 297 294 296 298 302 305 308 306 308 309 306
89 87 91 111 129 134 136 138 149 183 211 248 270 280 284 294 309 310 309 294 293 300 301 297 295 304 311 312 303 300 301 305 308 307 304 304 304 305 309 302 301 304 307
76 82 79 87 102 113 114 105 128 143 160 243 291 308 301 304 309 308 311 305 302 302 300 300 302 313 313 312 306 299 304 308 305 307 307 309 313 313 313 310 305 299 300
73 79 79 79 82 93 95 83 81 114 139 329 309 318 317 317 314 309 308 312 316 300 296 299 305 311 310 308 306 309 312 310 303 305 307 310 314 316 316 313 309 302 292
78 78 74 71 69 70 76 63 45 42 329 306 303 306 315 317 313 315 311 316 316 306 300 306 309 308 308 304 307 312 311 304 303 303 306 309 312 310 311 311 311 307 304
79 77 72 68 58 48 41 32 14 329 293 290 300 300 305 305 309 315 312 311 312 310 310 307 307 307 306 308 310 310 307 305 304 300 303 307 312 312 312 316 314 318 318
64 64 53 43 37 27 9 341 307 288 295 290 286 289 291 294 311 322 319 312 313 314 317 312 313 316 318 319 317 318 316 313 309 309 308 311 313 312 313 317 314 317 319
47 35 24 9 3 349 329 323 328 307 318 315 306 301 297 300 312 315 317 318 320 322 318 310 311 311 312 315 315 316 315 316 316 313 312 312 311 312 314 316 317 319 319
26 5 356 343 334 322 315 310 318 336 333 321 318 320 320 320 318 318 320 322 320 321 310 306 304 306 307 308 308 309 312 314 316 315 312 310 309 310 311 313 317 318 320
9 358 341 329 316 303 298 297 295 302 312 318 322 322 327 327 324 323 323 322 315 315 307 303 302 304 305 306 306 307 310 313 315 315 312 309 308 307 308 311 318 320 320
345 345 335 324 313 303 299 294 290 289 292 300 311 315 325 324 323 325 325 306 300 301 301 300 301 302 304 305 305 306 308 310 313 313 311 310 309 309 309 313 318 324 321
341 342 326 314 307 302 298 293 291 289 290 293 301 309 319 320 315 318 315 305 298 297 298 298 299 300 302 303 303 304 305 306 310 308 308 309 309 309 309 314 317 319 323
323 327 324 307 300 296 293 288 285 284 287 292 295 305 315 305 302 302 303 303 301 301 301 300 300 302 302 302 302 303 302 302 304 304 304 305 306 308 311 314 315 319 332
304 304 305 302 299 298 296 292 290 287 289 292 298 303 309 300 296 295 297 300 302 301 300 300 301 301 301 302 303 302 301 302 303 302 300 302 305 307 310 318 322 329 346
289 287 289 291 292 295 296 294 290 290 292 295 298 299 301 300 299 298 298 300 302 303 303 301 301 303 306 304 300 298 298 298 297 297 297 299 304 307 312 321 325 341 353
274 274 280 287 292 292 294 294 292 292 294 294 295 296 296 297 298 300 301 301 302 304 304 304 303 306 311 311 307 304 303 303 298 290 288 290 296 308 317 325 328 348 11
271 273 277 279 283 286 288 289 291 293 293 293 294 294 295 296 297 299 302 303 305 306 310 310 308 310 312 313 313 314 317 316 313 306 294 285 291 303 320 332 350 22 30
272 272 275 276 275 278 280 283 288 291 290 291 292 291 292 294 297 301 305 307 310 312 313 312 315 316 316 315 316 321 323 324 322 318 304 290 295 312 338 14 30 52 61